Time,TemperatureF,DewpointF,PressureIn,WindDirection,WindDirectionDegrees,WindSpeedMPH,WindSpeedGustMPH,Humidity,HourlyPrecipIn,Conditions,Clouds,dailyrainin,SoftwareType,DateUTC
2013-10-30 00:02:00,35.8,34.2,30.12,ENE,58,2.0,3.0,94,0.00,,OVC065,0.00,VWS V14.01,2013-10-30 05:02:00,
2013-10-30 00:07:00,35.8,34.5,30.12,ENE,61,1.0,3.0,95,0.00,,OVC065,0.00,VWS V14.01,2013-10-30 05:07:00,
2013-10-30 00:12:00,35.8,34.5,30.12,ENE,61,2.0,3.0,95,0.00,,OVC065,0.00,VWS V14.01,2013-10-30 05:12:00,
2013-10-30 00:17:00,35.9,34.6,30.12,ENE,58,1.0,3.0,95,0.00,,OVC065,0.00,VWS V14.01,2013-10-30 05:17:00,
2013-10-30 00:22:00,35.9,34.6,30.12,NE,56,3.0,3.0,95,0.00,,OVC065,0.00,VWS V14.01,2013-10-30 05:22:00,
2013-10-30 00:27:00,35.9,34.6,30.11,ENE,59,1.0,3.0,95,0.00,,OVC065,0.00,VWS V14.01,2013-10-30 05:27:00,
2013-10-30 00:32:00,36.0,34.7,30.11,ENE,63,2.0,3.0,95,0.00,,OVC065,0.00,VWS V14.01,2013-10-30 05:32:00,
2013-10-30 00:37:00,36.0,34.7,30.11,ENE,58,0.0,3.0,95,0.00,,OVC065,0.00,VWS V14.01,2013-10-30 05:37:00,
2013-10-30 00:42:00,36.0,34.7,30.11,ENE,61,0.0,3.0,95,0.00,,OVC065,0.00,VWS V14.01,2013-10-30 05:42:00,
2013-10-30 00:47:00,36.0,34.7,30.11,ENE,58,0.0,3.0,95,0.00,,OVC065,0.00,VWS V14.01,2013-10-30 05:47:00,
2013-10-30 00:52:00,36.1,34.8,30.11,ENE,61,1.0,3.0,95,0.00,,OVC065,0.00,VWS V14.01,2013-10-30 05:52:00,
2013-10-30 00:56:00,36.1,34.8,30.11,ENE,60,0.0,3.0,95,0.00,,OVC065,0.00,VWS V14.01,2013-10-30 05:56:00,
2013-10-30 01:01:00,36.1,34.8,30.11,ENE,61,0.0,1.0,95,0.00,,OVC065,0.00,VWS V14.01,2013-10-30 06:01:00,
2013-10-30 01:06:00,36.1,34.8,30.11,ENE,61,0.0,1.0,95,0.00,,OVC065,0.00,VWS V14.01,2013-10-30 06:06:00,
2013-10-30 01:11:00,36.1,34.8,30.11,ENE,61,0.0,1.0,95,0.00,,OVC065,0.00,VWS V14.01,2013-10-30 06:11:00,
2013-10-30 01:16:00,36.1,34.8,30.11,ENE,61,0.0,1.0,95,0.00,,OVC085,0.00,VWS V14.01,2013-10-30 06:16:00,
2013-10-30 01:21:00,36.1,34.8,30.10,ENE,58,0.0,1.0,95,0.00,,OVC065,0.00,VWS V14.01,2013-10-30 06:21:00,
2013-10-30 01:26:00,36.1,34.8,30.10,ENE,68,1.0,2.0,95,0.00,,OVC065,0.00,VWS V14.01,2013-10-30 06:26:00,
2013-10-30 01:31:00,36.1,34.8,30.10,ENE,70,1.0,2.0,95,0.00,,OVC065,0.00,VWS V14.01,2013-10-30 06:31:00,
2013-10-30 01:36:00,36.1,34.8,30.10,ENE,76,2.0,3.0,95,0.00,,OVC026,0.00,VWS V14.01,2013-10-30 06:36:00,
2013-10-30 01:41:00,36.1,34.8,30.10,ENE,71,2.0,3.0,95,0.00,,OVC026,0.00,VWS V14.01,2013-10-30 06:41:00,
2013-10-30 01:46:00,36.1,34.8,30.09,ENE,68,2.0,3.0,95,0.00,,OVC026,0.00,VWS V14.01,2013-10-30 06:46:00,
2013-10-30 01:51:00,36.1,35.1,30.09,ENE,75,2.0,4.0,96,0.00,,OVC038,0.00,VWS V14.01,2013-10-30 06:51:00,
2013-10-30 01:56:00,36.1,35.1,30.09,ENE,73,1.0,4.0,96,0.00,,OVC038,0.00,VWS V14.01,2013-10-30 06:56:00,
2013-10-30 02:02:00,36.2,35.2,30.09,ENE,71,1.0,3.0,96,0.00,,OVC038,0.00,VWS V14.01,2013-10-30 07:02:00,
2013-10-30 02:07:00,36.1,35.1,30.09,ENE,65,1.0,3.0,96,0.01,,OVC038,0.01,VWS V14.01,2013-10-30 07:07:00,
2013-10-30 02:12:00,36.1,35.1,30.09,ENE,63,1.0,3.0,96,0.01,,OVC038,0.01,VWS V14.01,2013-10-30 07:12:00,
2013-10-30 02:17:00,36.1,35.1,30.09,ENE,64,1.0,3.0,96,0.01,,OVC038,0.01,VWS V14.01,2013-10-30 07:17:00,
2013-10-30 02:22:00,36.1,35.1,30.09,ENE,63,1.0,3.0,96,0.01,,OVC038,0.01,VWS V14.01,2013-10-30 07:22:00,
2013-10-30 02:27:00,36.1,35.1,30.09,ENE,63,1.0,1.0,96,0.01,,OVC038,0.01,VWS V14.01,2013-10-30 07:27:00,
2013-10-30 02:32:00,36.1,35.1,30.09,ENE,63,0.0,1.0,96,0.01,,OVC046,0.01,VWS V14.01,2013-10-30 07:32:00,
2013-10-30 02:37:00,36.2,35.2,30.09,ENE,63,0.0,1.0,96,0.02,,OVC046,0.02,VWS V14.01,2013-10-30 07:37:00,
2013-10-30 02:42:00,36.2,35.2,30.09,ENE,63,0.0,1.0,96,0.02,,OVC046,0.02,VWS V14.01,2013-10-30 07:42:00,
2013-10-30 02:47:00,36.2,35.2,30.09,ENE,63,0.0,1.0,96,0.02,,OVC046,0.02,VWS V14.01,2013-10-30 07:47:00,
2013-10-30 02:52:00,36.2,35.2,30.09,ENE,63,0.0,1.0,96,0.02,,OVC002,0.02,VWS V14.01,2013-10-30 07:52:00,
2013-10-30 02:57:00,36.3,35.3,30.08,ENE,63,0.0,1.0,96,0.02,,OVC002,0.02,VWS V14.01,2013-10-30 07:57:00,
2013-10-30 03:02:00,36.3,35.3,30.08,ENE,63,0.0,1.0,96,0.03,,OVC002,0.03,VWS V14.01,2013-10-30 08:02:00,
2013-10-30 03:07:00,36.3,35.3,30.08,ENE,63,1.0,1.0,96,0.03,,OVC002,0.03,VWS V14.01,2013-10-30 08:07:00,
2013-10-30 03:12:00,36.3,35.3,30.08,ENE,60,2.0,2.0,96,0.03,,OVC002,0.03,VWS V14.01,2013-10-30 08:12:00,
2013-10-30 03:17:00,36.3,35.3,30.08,NE,56,0.0,2.0,96,0.03,,OVC002,0.03,VWS V14.01,2013-10-30 08:17:00,
2013-10-30 03:22:00,36.3,35.5,30.08,NE,56,0.0,2.0,97,0.03,,OVC002,0.03,VWS V14.01,2013-10-30 08:22:00,
2013-10-30 03:27:00,36.3,35.5,30.08,ENE,60,1.0,2.0,97,0.03,,OVC002,0.03,VWS V14.01,2013-10-30 08:27:00,
2013-10-30 03:32:00,36.3,35.5,30.07,ENE,58,1.0,2.0,97,0.02,,OVC009,0.03,VWS V14.01,2013-10-30 08:32:00,
2013-10-30 03:37:00,36.3,35.5,30.07,ENE,58,1.0,2.0,97,0.02,,OVC009,0.03,VWS V14.01,2013-10-30 08:37:00,
2013-10-30 03:42:00,36.3,35.5,30.07,ENE,58,0.0,3.0,97,0.02,,OVC009,0.03,VWS V14.01,2013-10-30 08:42:00,
2013-10-30 03:47:00,36.3,35.5,30.06,ENE,58,2.0,3.0,97,0.02,,OVC014,0.03,VWS V14.01,2013-10-30 08:47:00,
2013-10-30 03:52:00,36.3,35.5,30.06,ENE,67,3.0,3.0,97,0.02,,OVC009,0.03,VWS V14.01,2013-10-30 08:52:00,
2013-10-30 03:57:00,36.3,35.5,30.06,ENE,65,1.0,4.0,97,0.02,,OVC009,0.03,VWS V14.01,2013-10-30 08:57:00,
2013-10-30 04:02:00,36.3,35.5,30.06,ENE,58,1.0,2.0,97,0.01,,OVC009,0.03,VWS V14.01,2013-10-30 09:02:00,
2013-10-30 04:07:00,36.3,35.5,30.06,ENE,60,1.0,2.0,97,0.01,,OVC009,0.03,VWS V14.01,2013-10-30 09:07:00,
2013-10-30 04:12:00,36.3,35.5,30.05,ENE,58,1.0,2.0,97,0.01,,OVC009,0.03,VWS V14.01,2013-10-30 09:12:00,
2013-10-30 04:17:00,36.3,35.5,30.06,ENE,71,0.0,3.0,97,0.01,,OVC009,0.03,VWS V14.01,2013-10-30 09:17:00,
2013-10-30 04:22:00,36.3,35.5,30.06,ENE,72,0.0,3.0,97,0.01,,OVC009,0.03,VWS V14.01,2013-10-30 09:22:00,
2013-10-30 04:27:00,36.4,35.6,30.05,ENE,71,0.0,3.0,97,0.01,,OVC009,0.03,VWS V14.01,2013-10-30 09:27:00,
2013-10-30 04:32:00,36.4,35.6,30.06,ENE,77,2.0,2.0,97,0.00,,OVC002,0.03,VWS V14.01,2013-10-30 09:32:00,
2013-10-30 04:37:00,36.4,35.6,30.05,ENE,76,0.0,2.0,97,0.00,,OVC002,0.03,VWS V14.01,2013-10-30 09:37:00,
2013-10-30 04:42:00,36.4,35.6,30.05,ENE,75,0.0,2.0,97,0.00,,OVC002,0.03,VWS V14.01,2013-10-30 09:42:00,
2013-10-30 04:47:00,36.4,35.6,30.05,ENE,75,0.0,2.0,97,0.00,,OVC002,0.03,VWS V14.01,2013-10-30 09:47:00,
2013-10-30 04:52:00,36.4,35.6,30.05,ENE,75,0.0,2.0,97,0.00,,OVC006,0.03,VWS V14.01,2013-10-30 09:52:00,
2013-10-30 04:57:00,36.4,35.6,30.05,ENE,75,0.0,2.0,97,0.00,,OVC006,0.03,VWS V14.01,2013-10-30 09:57:00,
2013-10-30 05:02:00,36.4,35.6,30.06,ENE,75,0.0,0.0,97,0.00,,OVC006,0.03,VWS V14.01,2013-10-30 10:02:00,
2013-10-30 05:07:00,36.5,35.7,30.05,NE,56,0.0,0.0,97,0.00,,OVC006,0.03,VWS V14.01,2013-10-30 10:07:00,
2013-10-30 05:12:00,36.5,35.7,30.04,NE,56,0.0,3.0,97,0.00,,OVC006,0.03,VWS V14.01,2013-10-30 10:12:00,
2013-10-30 05:17:00,36.4,35.6,30.05,ENE,57,1.0,3.0,97,0.00,,OVC006,0.03,VWS V14.01,2013-10-30 10:17:00,
2013-10-30 05:22:00,36.5,35.7,30.04,NE,56,2.0,3.0,97,0.00,,OVC006,0.03,VWS V14.01,2013-10-30 10:22:00,
2013-10-30 05:27:00,36.4,35.6,30.05,NE,56,0.0,3.0,97,0.00,,OVC006,0.03,VWS V14.01,2013-10-30 10:27:00,
2013-10-30 05:32:00,36.5,35.7,30.05,NE,56,1.0,2.0,97,0.00,,OVC004,0.03,VWS V14.01,2013-10-30 10:32:00,
2013-10-30 05:37:00,36.5,35.7,30.04,ENE,60,3.0,3.0,97,0.00,,OVC006,0.03,VWS V14.01,2013-10-30 10:37:00,
2013-10-30 05:42:00,36.5,35.7,30.04,ENE,76,1.0,3.0,97,0.00,,OVC006,0.03,VWS V14.01,2013-10-30 10:42:00,
2013-10-30 05:47:00,36.6,35.8,30.04,ENE,77,1.0,3.0,97,0.00,,OVC006,0.03,VWS V14.01,2013-10-30 10:47:00,
2013-10-30 05:52:00,36.6,35.8,30.04,ENE,74,0.0,3.0,97,0.00,,OVC006,0.03,VWS V14.01,2013-10-30 10:52:00,
2013-10-30 05:57:00,36.6,35.8,30.04,ENE,70,2.0,3.0,97,0.00,,OVC006,0.03,VWS V14.01,2013-10-30 10:57:00,
2013-10-30 06:02:00,36.7,35.9,30.04,ENE,70,1.0,2.0,97,0.00,,OVC006,0.03,VWS V14.01,2013-10-30 11:02:00,
2013-10-30 06:07:00,36.7,35.9,30.03,ENE,60,1.0,2.0,97,0.00,,OVC006,0.03,VWS V14.01,2013-10-30 11:07:00,
2013-10-30 06:12:00,36.7,35.9,30.03,ENE,65,2.0,2.0,97,0.00,,OVC006,0.03,VWS V14.01,2013-10-30 11:12:00,
2013-10-30 06:17:00,36.8,36.0,30.03,ENE,65,1.0,4.0,97,0.00,,OVC006,0.03,VWS V14.01,2013-10-30 11:17:00,
2013-10-30 06:22:00,36.8,36.0,30.03,ENE,70,1.0,4.0,97,0.00,,OVC006,0.03,VWS V14.01,2013-10-30 11:22:00,
2013-10-30 06:27:00,36.8,36.0,30.03,ENE,61,0.0,4.0,97,0.00,,OVC006,0.03,VWS V14.01,2013-10-30 11:27:00,
2013-10-30 06:32:00,36.9,36.1,30.02,ENE,58,1.0,2.0,97,0.00,,OVC006,0.03,VWS V14.01,2013-10-30 11:32:00,
2013-10-30 06:37:00,36.9,36.1,30.02,ENE,63,2.0,2.0,97,0.00,,OVC004,0.03,VWS V14.01,2013-10-30 11:37:00,
2013-10-30 06:42:00,37.0,36.5,30.02,ENE,65,1.0,3.0,98,0.00,,OVC004,0.03,VWS V14.01,2013-10-30 11:42:00,
2013-10-30 06:47:00,37.0,36.5,30.02,ENE,61,0.0,3.0,98,0.00,,OVC004,0.03,VWS V14.01,2013-10-30 11:47:00,
2013-10-30 06:52:00,37.1,36.6,30.02,ENE,72,0.0,3.0,98,0.00,,OVC004,0.03,VWS V14.01,2013-10-30 11:52:00,
2013-10-30 06:57:00,37.1,36.6,30.02,ENE,72,0.0,3.0,98,0.00,,OVC004,0.03,VWS V14.01,2013-10-30 11:57:00,
2013-10-30 07:02:00,37.1,36.6,30.03,ENE,72,0.0,0.0,98,0.00,,OVC004,0.03,VWS V14.01,2013-10-30 12:02:00,
2013-10-30 07:07:00,37.2,36.7,30.02,ENE,72,0.0,0.0,98,0.00,,OVC004,0.03,VWS V14.01,2013-10-30 12:07:00,
2013-10-30 07:12:00,37.2,36.7,30.02,ENE,71,1.0,1.0,98,0.00,,OVC004,0.03,VWS V14.01,2013-10-30 12:12:00,
2013-10-30 07:17:00,37.2,36.7,30.01,ENE,63,1.0,2.0,98,0.00,,OVC004,0.03,VWS V14.01,2013-10-30 12:17:00,
2013-10-30 07:22:00,37.3,36.8,30.01,ENE,58,1.0,2.0,98,0.00,,OVC004,0.03,VWS V14.01,2013-10-30 12:22:00,
2013-10-30 07:27:00,37.3,36.8,30.00,ENE,58,0.0,2.0,98,0.00,,OVC004,0.03,VWS V14.01,2013-10-30 12:27:00,
2013-10-30 07:32:00,37.3,36.8,30.00,ENE,58,1.0,1.0,98,0.00,,OVC002,0.03,VWS V14.01,2013-10-30 12:32:00,
2013-10-30 07:37:00,37.4,36.9,30.01,ENE,65,1.0,2.0,98,0.00,,OVC002,0.03,VWS V14.01,2013-10-30 12:37:00,
2013-10-30 07:42:00,37.4,36.9,30.01,East,79,1.0,2.0,98,0.00,,OVC002,0.03,VWS V14.01,2013-10-30 12:42:00,
2013-10-30 07:47:00,37.5,37.0,30.00,East,79,1.0,2.0,98,0.00,,OVC002,0.03,VWS V14.01,2013-10-30 12:47:00,
2013-10-30 07:52:00,37.6,37.1,30.00,ENE,63,1.0,2.0,98,0.00,,OVC002,0.03,VWS V14.01,2013-10-30 12:52:00,
2013-10-30 07:57:00,37.6,37.1,30.00,ENE,70,2.0,3.0,98,0.00,,OVC002,0.03,VWS V14.01,2013-10-30 12:57:00,
2013-10-30 08:02:00,37.7,37.2,30.00,ENE,72,0.0,2.0,98,0.00,,OVC002,0.03,VWS V14.01,2013-10-30 13:02:00,
2013-10-30 08:07:00,37.8,37.3,30.00,ENE,71,0.0,2.0,98,0.00,,OVC002,0.03,VWS V14.01,2013-10-30 13:07:00,
2013-10-30 08:12:00,37.9,37.4,30.00,ENE,71,0.0,2.0,98,0.00,,OVC002,0.03,VWS V14.01,2013-10-30 13:12:00,
2013-10-30 08:17:00,37.9,37.4,30.00,ENE,71,0.0,2.0,98,0.00,,OVC002,0.03,VWS V14.01,2013-10-30 13:17:00,
2013-10-30 08:22:00,38.0,37.5,30.00,ENE,71,0.0,2.0,98,0.00,,OVC002,0.03,VWS V14.01,2013-10-30 13:22:00,
2013-10-30 08:27:00,38.1,37.6,30.01,ENE,71,0.0,2.0,98,0.00,,OVC002,0.03,VWS V14.01,2013-10-30 13:27:00,
2013-10-30 08:32:00,38.1,37.6,30.00,ENE,71,0.0,0.0,98,0.00,,OVC006,0.03,VWS V14.01,2013-10-30 13:32:00,
2013-10-30 08:37:00,38.2,37.7,30.00,ENE,71,0.0,1.0,98,0.00,,OVC004,0.03,VWS V14.01,2013-10-30 13:37:00,
2013-10-30 08:42:00,38.2,37.7,30.00,ENE,71,0.0,1.0,98,0.00,,OVC004,0.03,VWS V14.01,2013-10-30 13:42:00,
2013-10-30 08:46:00,38.3,37.8,30.00,ENE,70,0.0,1.0,98,0.00,,OVC004,0.03,VWS V14.01,2013-10-30 13:46:00,
2013-10-30 08:51:00,38.3,37.8,30.00,ENE,68,0.0,1.0,98,0.00,,OVC002,0.03,VWS V14.01,2013-10-30 13:51:00,
2013-10-30 08:57:00,38.3,37.8,30.00,ENE,60,1.0,2.0,98,0.00,,OVC002,0.03,VWS V14.01,2013-10-30 13:57:00,
2013-10-30 09:02:00,38.5,38.0,30.01,ENE,60,0.0,1.0,98,0.00,,OVC002,0.03,VWS V14.01,2013-10-30 14:02:00,
2013-10-30 09:06:00,38.5,38.0,30.01,ENE,61,0.0,2.0,98,0.00,,OVC002,0.03,VWS V14.01,2013-10-30 14:06:00,
2013-10-30 09:11:00,38.6,38.1,30.01,ENE,60,1.0,2.0,98,0.00,,OVC002,0.03,VWS V14.01,2013-10-30 14:11:00,
2013-10-30 09:16:00,38.7,38.2,30.01,ENE,75,1.0,2.0,98,0.00,,OVC002,0.03,VWS V14.01,2013-10-30 14:16:00,
2013-10-30 09:21:00,38.7,38.2,30.01,ENE,65,1.0,2.0,98,0.00,,OVC002,0.03,VWS V14.01,2013-10-30 14:21:00,
2013-10-30 09:26:00,38.8,38.3,30.01,ENE,61,1.0,2.0,98,0.00,,OVC002,0.03,VWS V14.01,2013-10-30 14:26:00,
2013-10-30 09:31:00,38.8,38.3,30.00,ENE,58,2.0,2.0,98,0.00,,OVC002,0.03,VWS V14.01,2013-10-30 14:31:00,
2013-10-30 09:36:00,38.8,38.3,30.00,ENE,65,2.0,3.0,98,0.00,,OVC002,0.03,VWS V14.01,2013-10-30 14:36:00,
2013-10-30 09:41:00,39.0,38.5,30.00,ENE,67,4.0,5.0,98,0.00,,OVC002,0.03,VWS V14.01,2013-10-30 14:41:00,
2013-10-30 09:46:00,39.1,38.6,30.00,ENE,61,2.0,5.0,98,0.00,,OVC002,0.03,VWS V14.01,2013-10-30 14:46:00,
2013-10-30 09:51:00,39.4,38.9,30.00,ENE,68,2.0,5.0,98,0.00,,OVC002,0.03,VWS V14.01,2013-10-30 14:51:00,
2013-10-30 09:56:00,39.5,39.0,30.00,ENE,61,2.0,5.0,98,0.00,,OVC002,0.03,VWS V14.01,2013-10-30 14:56:00,
2013-10-30 10:01:00,39.6,39.1,30.00,East,89,3.0,4.0,98,0.00,,OVC002,0.03,VWS V14.01,2013-10-30 15:01:00,
2013-10-30 10:06:00,39.7,39.2,30.00,East,90,2.0,5.0,98,0.00,,OVC002,0.03,VWS V14.01,2013-10-30 15:06:00,
2013-10-30 10:11:00,39.9,39.4,30.00,East,79,2.0,5.0,98,0.00,,OVC002,0.03,VWS V14.01,2013-10-30 15:11:00,
2013-10-30 10:16:00,39.9,39.4,30.01,ESE,114,1.0,5.0,98,0.00,,OVC002,0.03,VWS V14.01,2013-10-30 15:16:00,
2013-10-30 10:21:00,40.0,39.5,30.00,ESE,105,0.0,5.0,98,0.00,,OVC002,0.03,VWS V14.01,2013-10-30 15:21:00,
2013-10-30 10:26:00,40.1,39.6,30.00,East,101,1.0,5.0,98,0.00,,OVC002,0.03,VWS V14.01,2013-10-30 15:26:00,
2013-10-30 10:31:00,40.2,39.7,30.00,East,98,1.0,1.0,98,0.00,,OVC002,0.03,VWS V14.01,2013-10-30 15:31:00,
2013-10-30 10:36:00,40.3,39.8,30.00,East,89,0.0,2.0,98,0.00,,OVC002,0.03,VWS V14.01,2013-10-30 15:36:00,
2013-10-30 10:41:00,40.4,39.9,29.99,East,89,0.0,2.0,98,0.00,,OVC002,0.03,VWS V14.01,2013-10-30 15:41:00,
2013-10-30 10:46:00,40.4,39.9,29.99,East,89,0.0,2.0,98,0.00,,OVC002,0.03,VWS V14.01,2013-10-30 15:46:00,
2013-10-30 10:51:00,40.6,40.1,29.99,East,89,0.0,2.0,98,0.00,,OVC002,0.03,VWS V14.01,2013-10-30 15:51:00,
2013-10-30 10:56:00,40.7,40.2,29.98,East,89,0.0,2.0,98,0.00,,OVC002,0.03,VWS V14.01,2013-10-30 15:56:00,
2013-10-30 11:01:00,40.7,40.2,29.98,East,89,0.0,0.0,98,0.00,,OVC002,0.03,VWS V14.01,2013-10-30 16:01:00,
2013-10-30 11:06:00,40.8,40.3,29.97,East,89,0.0,1.0,98,0.01,,OVC002,0.04,VWS V14.01,2013-10-30 16:06:00,
2013-10-30 11:11:00,40.9,40.4,29.97,East,86,1.0,1.0,98,0.01,,OVC002,0.04,VWS V14.01,2013-10-30 16:11:00,
2013-10-30 11:16:00,41.0,40.5,29.96,ENE,71,1.0,2.0,98,0.01,,OVC002,0.04,VWS V14.01,2013-10-30 16:16:00,
2013-10-30 11:21:00,41.1,40.6,29.95,ENE,58,1.0,2.0,98,0.01,,OVC002,0.04,VWS V14.01,2013-10-30 16:21:00,
2013-10-30 11:26:00,41.1,40.6,29.95,ENE,65,1.0,2.0,98,0.01,,OVC002,0.04,VWS V14.01,2013-10-30 16:26:00,
2013-10-30 11:31:00,41.1,40.6,29.94,ENE,63,1.0,2.0,98,0.01,,OVC002,0.04,VWS V14.01,2013-10-30 16:31:00,
2013-10-30 11:36:00,41.3,40.8,29.94,ENE,58,0.0,2.0,98,0.01,,,0.04,VWS V14.01,2013-10-30 16:36:00,
2013-10-30 11:41:00,41.3,40.8,29.93,ENE,57,1.0,2.0,98,0.01,,,0.04,VWS V14.01,2013-10-30 16:41:00,
2013-10-30 11:46:00,41.6,41.1,29.93,ENE,58,2.0,2.0,98,0.01,,,0.04,VWS V14.01,2013-10-30 16:46:00,
2013-10-30 11:51:00,41.8,41.3,29.92,ENE,65,3.0,3.0,98,0.01,,,0.04,VWS V14.01,2013-10-30 16:51:00,
2013-10-30 11:56:00,42.0,41.5,29.92,East,85,5.0,5.0,98,0.01,,,0.04,VWS V14.01,2013-10-30 16:56:00,
2013-10-30 12:01:00,42.2,41.7,29.91,ENE,68,3.0,6.0,98,0.01,,,0.04,VWS V14.01,2013-10-30 17:01:00,
2013-10-30 12:06:00,42.4,41.9,29.91,NE,52,3.0,7.0,98,0.01,,,0.04,VWS V14.01,2013-10-30 17:06:00,
2013-10-30 12:11:00,42.4,41.9,29.91,ENE,71,4.0,7.0,98,0.01,,,0.04,VWS V14.01,2013-10-30 17:11:00,
2013-10-30 12:16:00,42.6,42.1,29.90,East,79,6.0,8.0,98,0.01,,,0.04,VWS V14.01,2013-10-30 17:16:00,
2013-10-30 12:21:00,42.8,42.3,29.90,ENE,76,5.0,8.0,98,0.01,,,0.04,VWS V14.01,2013-10-30 17:21:00,
2013-10-30 12:26:00,43.0,42.5,29.90,ENE,58,3.0,8.0,98,0.01,,,0.04,VWS V14.01,2013-10-30 17:26:00,
2013-10-30 12:31:00,43.4,42.9,29.90,ENE,61,3.0,5.0,98,0.00,,,0.04,VWS V14.01,2013-10-30 17:31:00,
2013-10-30 12:36:00,43.4,42.9,29.89,East,92,7.0,8.0,98,0.00,,,0.04,VWS V14.01,2013-10-30 17:36:00,
2013-10-30 12:41:00,43.7,43.4,29.87,ENE,64,6.0,9.0,99,0.00,,,0.04,VWS V14.01,2013-10-30 17:41:00,
2013-10-30 12:46:00,43.9,43.6,29.88,East,96,6.0,10.0,99,0.00,,,0.04,VWS V14.01,2013-10-30 17:46:00,
2013-10-30 12:51:00,44.2,43.9,29.88,East,88,5.0,10.0,99,0.00,,,0.04,VWS V14.01,2013-10-30 17:51:00,
2013-10-30 12:56:00,44.3,44.0,29.89,ESE,106,2.0,10.0,99,0.00,,,0.04,VWS V14.01,2013-10-30 17:56:00,
2013-10-30 13:01:00,44.4,44.1,29.89,ESE,105,1.0,5.0,99,0.00,,,0.04,VWS V14.01,2013-10-30 18:01:00,
2013-10-30 13:06:00,44.5,44.2,29.89,ENE,68,1.0,5.0,99,0.00,,,0.04,VWS V14.01,2013-10-30 18:06:00,
2013-10-30 13:11:00,44.6,44.3,29.88,ENE,68,0.0,5.0,99,0.00,,,0.04,VWS V14.01,2013-10-30 18:11:00,
2013-10-30 13:16:00,44.7,44.4,29.89,ENE,68,0.0,5.0,99,0.00,,,0.04,VWS V14.01,2013-10-30 18:16:00,
2013-10-30 13:21:00,44.9,44.4,29.89,ENE,68,0.0,5.0,98,0.00,,,0.04,VWS V14.01,2013-10-30 18:21:00,
2013-10-30 13:26:00,44.9,44.4,29.89,ENE,68,0.0,5.0,98,0.00,,,0.04,VWS V14.01,2013-10-30 18:26:00,
2013-10-30 13:31:00,44.8,44.3,29.89,ENE,68,0.0,2.0,98,0.00,,,0.04,VWS V14.01,2013-10-30 18:31:00,
2013-10-30 13:36:00,44.9,44.4,29.90,ENE,68,0.0,2.0,98,0.00,,,0.04,VWS V14.01,2013-10-30 18:36:00,
2013-10-30 13:41:00,45.0,44.5,29.89,ENE,68,0.0,2.0,98,0.00,,,0.04,VWS V14.01,2013-10-30 18:41:00,
2013-10-30 13:46:00,45.1,44.6,29.89,ENE,68,0.0,2.0,98,0.00,,,0.04,VWS V14.01,2013-10-30 18:46:00,
2013-10-30 13:51:00,45.2,44.7,29.89,ENE,68,0.0,2.0,98,0.00,,,0.04,VWS V14.01,2013-10-30 18:51:00,
2013-10-30 13:56:00,45.3,44.8,29.89,ENE,68,0.0,2.0,98,0.00,,,0.04,VWS V14.01,2013-10-30 18:56:00,
2013-10-30 14:01:00,45.3,44.8,29.88,East,91,1.0,1.0,98,0.00,,,0.04,VWS V14.01,2013-10-30 19:01:00,
2013-10-30 14:06:00,45.3,44.8,29.88,East,90,1.0,2.0,98,0.00,,,0.04,VWS V14.01,2013-10-30 19:06:00,
2013-10-30 14:11:00,45.3,44.8,29.88,East,91,1.0,2.0,98,0.00,,,0.04,VWS V14.01,2013-10-30 19:11:00,
2013-10-30 14:16:00,45.4,44.9,29.88,East,92,0.0,2.0,98,0.00,,,0.04,VWS V14.01,2013-10-30 19:16:00,
2013-10-30 14:21:00,45.5,45.0,29.87,East,95,1.0,2.0,98,0.00,,,0.04,VWS V14.01,2013-10-30 19:21:00,
2013-10-30 14:26:00,45.6,45.1,29.86,ENE,75,2.0,2.0,98,0.00,,,0.04,VWS V14.01,2013-10-30 19:26:00,
2013-10-30 14:31:00,45.6,45.1,29.86,ENE,76,2.0,3.0,98,0.00,,,0.04,VWS V14.01,2013-10-30 19:31:00,
2013-10-30 14:36:00,45.7,45.2,29.86,East,79,1.0,3.0,98,0.00,,,0.04,VWS V14.01,2013-10-30 19:36:00,
2013-10-30 14:41:00,45.7,45.2,29.85,East,87,1.0,3.0,98,0.00,,,0.04,VWS V14.01,2013-10-30 19:41:00,
2013-10-30 14:46:00,45.8,45.3,29.85,East,82,1.0,3.0,98,0.00,,,0.04,VWS V14.01,2013-10-30 19:46:00,
2013-10-30 14:51:00,45.8,45.3,29.85,East,81,1.0,3.0,98,0.00,,,0.04,VWS V14.01,2013-10-30 19:51:00,
2013-10-30 14:56:00,45.8,45.3,29.85,East,81,0.0,3.0,98,0.00,,,0.04,VWS V14.01,2013-10-30 19:56:00,
2013-10-30 15:01:00,45.7,45.2,29.84,East,80,0.0,0.0,98,0.00,,,0.04,VWS V14.01,2013-10-30 20:01:00,
2013-10-30 15:06:00,45.6,45.1,29.83,East,80,0.0,0.0,98,0.00,,,0.04,VWS V14.01,2013-10-30 20:06:00,
2013-10-30 15:11:00,45.7,45.2,29.83,East,79,1.0,2.0,98,0.00,,,0.04,VWS V14.01,2013-10-30 20:11:00,
2013-10-30 15:16:00,45.9,45.4,29.82,East,89,1.0,3.0,98,0.00,,,0.04,VWS V14.01,2013-10-30 20:16:00,
2013-10-30 15:21:00,46.1,45.8,29.81,East,91,3.0,4.0,99,0.00,,,0.04,VWS V14.01,2013-10-30 20:21:00,
2013-10-30 15:26:00,46.3,46.0,29.83,ESE,103,1.0,4.0,99,0.00,,,0.04,VWS V14.01,2013-10-30 20:26:00,
2013-10-30 15:31:00,46.4,46.1,29.83,ESE,106,1.0,2.0,99,0.00,,,0.04,VWS V14.01,2013-10-30 20:31:00,
2013-10-30 15:36:00,46.4,46.1,29.82,ESE,110,1.0,3.0,99,0.00,,,0.04,VWS V14.01,2013-10-30 20:36:00,
2013-10-30 15:41:00,46.5,46.0,29.82,SE,134,1.0,3.0,98,0.00,,,0.04,VWS V14.01,2013-10-30 20:41:00,
2013-10-30 15:46:00,46.5,46.0,29.82,ESE,117,0.0,3.0,98,0.00,,,0.04,VWS V14.01,2013-10-30 20:46:00,
2013-10-30 15:51:00,46.5,46.0,29.80,East,99,2.0,3.0,98,0.00,,,0.04,VWS V14.01,2013-10-30 20:51:00,
2013-10-30 15:56:00,46.6,46.1,29.80,ENE,76,2.0,3.0,98,0.00,,,0.04,VWS V14.01,2013-10-30 20:56:00,
2013-10-30 16:01:00,46.7,46.2,29.80,ENE,77,4.0,5.0,98,0.00,,,0.04,VWS V14.01,2013-10-30 21:01:00,
2013-10-30 16:06:00,46.7,46.2,29.80,ENE,72,3.0,5.0,98,0.00,,,0.04,VWS V14.01,2013-10-30 21:06:00,
2013-10-30 16:11:00,46.7,46.2,29.79,East,91,2.0,6.0,98,0.01,,,0.05,VWS V14.01,2013-10-30 21:11:00,
2013-10-30 16:16:00,46.8,46.3,29.80,East,95,0.0,6.0,98,0.01,,,0.05,VWS V14.01,2013-10-30 21:16:00,
2013-10-30 16:21:00,46.8,46.3,29.80,ESE,103,1.0,6.0,98,0.01,,,0.05,VWS V14.01,2013-10-30 21:21:00,
2013-10-30 16:26:00,46.9,46.6,29.80,ESE,107,1.0,6.0,99,0.01,,,0.05,VWS V14.01,2013-10-30 21:26:00,
2013-10-30 16:31:00,46.9,46.6,29.79,ESE,107,2.0,2.0,99,0.01,,,0.05,VWS V14.01,2013-10-30 21:31:00,
2013-10-30 16:36:00,46.9,46.4,29.79,East,96,3.0,3.0,98,0.01,,,0.05,VWS V14.01,2013-10-30 21:36:00,
2013-10-30 16:41:00,46.9,46.4,29.79,East,101,3.0,5.0,98,0.01,,,0.05,VWS V14.01,2013-10-30 21:41:00,
2013-10-30 16:46:00,46.9,46.4,29.79,ESE,103,3.0,5.0,98,0.01,,,0.05,VWS V14.01,2013-10-30 21:46:00,
2013-10-30 16:51:00,46.9,46.4,29.79,ESE,110,2.0,5.0,98,0.01,,,0.05,VWS V14.01,2013-10-30 21:51:00,
2013-10-30 16:56:00,46.9,46.4,29.79,ESE,102,3.0,5.0,98,0.01,,,0.05,VWS V14.01,2013-10-30 21:56:00,
2013-10-30 17:01:00,46.9,46.4,29.78,East,91,2.0,3.0,98,0.01,,,0.05,VWS V14.01,2013-10-30 22:01:00,
2013-10-30 17:06:00,46.9,46.4,29.78,ESE,105,1.0,3.0,98,0.01,,,0.05,VWS V14.01,2013-10-30 22:06:00,
2013-10-30 17:11:00,46.9,46.4,29.78,ESE,105,2.0,3.0,98,0.01,,,0.05,VWS V14.01,2013-10-30 22:11:00,
2013-10-30 17:16:00,47.0,46.7,29.78,East,100,1.0,3.0,99,0.01,,,0.05,VWS V14.01,2013-10-30 22:16:00,
2013-10-30 17:21:00,46.9,46.4,29.78,ESE,108,1.0,4.0,98,0.01,,,0.05,VWS V14.01,2013-10-30 22:21:00,
2013-10-30 17:26:00,47.0,46.7,29.78,East,84,2.0,4.0,99,0.01,,,0.05,VWS V14.01,2013-10-30 22:26:00,
2013-10-30 17:31:00,47.0,46.5,29.77,East,86,4.0,4.0,98,0.00,,,0.05,VWS V14.01,2013-10-30 22:31:00,
2013-10-30 17:36:00,47.0,46.7,29.76,East,101,4.0,6.0,99,0.00,,,0.05,VWS V14.01,2013-10-30 22:36:00,
2013-10-30 17:41:00,47.0,46.5,29.77,ESE,112,2.0,6.0,98,0.00,,,0.05,VWS V14.01,2013-10-30 22:41:00,
2013-10-30 17:46:00,47.0,46.7,29.77,East,96,3.0,6.0,99,0.00,,,0.05,VWS V14.01,2013-10-30 22:46:00,
2013-10-30 17:51:00,47.0,46.7,29.77,ESE,113,1.0,6.0,99,0.00,,,0.05,VWS V14.01,2013-10-30 22:51:00,
2013-10-30 17:56:00,47.0,46.7,29.77,ESE,113,2.0,6.0,99,0.00,,,0.05,VWS V14.01,2013-10-30 22:56:00,
2013-10-30 18:01:00,47.0,46.7,29.77,ESE,106,2.0,3.0,99,0.00,,,0.05,VWS V14.01,2013-10-30 23:01:00,
2013-10-30 18:06:00,47.0,46.7,29.77,ESE,107,2.0,3.0,99,0.00,,,0.05,VWS V14.01,2013-10-30 23:06:00,
2013-10-30 18:11:00,47.0,46.7,29.77,ESE,103,1.0,3.0,99,0.00,,,0.05,VWS V14.01,2013-10-30 23:11:00,
2013-10-30 18:16:00,47.0,46.7,29.77,ESE,109,1.0,3.0,99,0.00,,,0.05,VWS V14.01,2013-10-30 23:16:00,
2013-10-30 18:21:00,47.0,46.7,29.77,East,99,2.0,3.0,99,0.00,,,0.05,VWS V14.01,2013-10-30 23:21:00,
2013-10-30 18:26:00,47.0,46.7,29.77,East,84,2.0,3.0,99,0.00,,,0.05,VWS V14.01,2013-10-30 23:26:00,
2013-10-30 18:31:00,47.0,46.7,29.77,ESE,110,1.0,3.0,99,0.00,,,0.05,VWS V14.01,2013-10-30 23:31:00,
2013-10-30 18:36:00,47.0,46.7,29.77,SE,132,1.0,3.0,99,0.00,,,0.05,VWS V14.01,2013-10-30 23:36:00,
2013-10-30 18:41:00,47.0,46.7,29.77,SE,128,1.0,3.0,99,0.00,,,0.05,VWS V14.01,2013-10-30 23:41:00,
2013-10-30 18:46:00,47.0,46.7,29.77,SSE,148,0.0,3.0,99,0.00,,,0.05,VWS V14.01,2013-10-30 23:46:00,
2013-10-30 18:51:00,47.1,46.8,29.78,SSW,200,0.0,3.0,99,0.00,,,0.05,VWS V14.01,2013-10-30 23:51:00,
2013-10-30 18:56:00,47.1,46.8,29.77,ESE,110,1.0,3.0,99,0.00,,,0.05,VWS V14.01,2013-10-30 23:56:00,
2013-10-30 19:01:00,47.1,46.8,29.76,ESE,110,0.0,0.0,99,0.00,,,0.05,VWS V14.01,2013-10-31 00:01:00,
2013-10-30 19:06:00,47.1,46.8,29.76,ESE,102,0.0,1.0,99,0.00,,,0.05,VWS V14.01,2013-10-31 00:06:00,
2013-10-30 19:11:00,47.1,46.8,29.76,ENE,76,2.0,2.0,99,0.00,,,0.05,VWS V14.01,2013-10-31 00:11:00,
2013-10-30 19:16:00,47.1,46.8,29.76,East,84,1.0,3.0,99,0.00,,,0.05,VWS V14.01,2013-10-31 00:16:00,
2013-10-30 19:21:00,47.0,46.7,29.76,East,99,0.0,3.0,99,0.00,,,0.05,VWS V14.01,2013-10-31 00:21:00,
2013-10-30 19:26:00,47.0,46.7,29.76,East,99,0.0,3.0,99,0.00,,,0.05,VWS V14.01,2013-10-31 00:26:00,
2013-10-30 19:31:00,47.0,46.7,29.76,East,96,2.0,2.0,99,0.00,,,0.05,VWS V14.01,2013-10-31 00:31:00,
2013-10-30 19:36:00,46.9,46.6,29.76,ESE,110,0.0,2.0,99,0.00,,,0.05,VWS V14.01,2013-10-31 00:36:00,
2013-10-30 19:41:00,46.9,46.6,29.75,ESE,104,1.0,2.0,99,0.00,,,0.05,VWS V14.01,2013-10-31 00:41:00,
2013-10-30 19:46:00,46.9,46.6,29.75,East,100,2.0,3.0,99,0.00,,,0.05,VWS V14.01,2013-10-31 00:46:00,
2013-10-30 19:51:00,46.9,46.6,29.75,ESE,103,1.0,3.0,99,0.00,,,0.05,VWS V14.01,2013-10-31 00:51:00,
2013-10-30 19:56:00,46.9,46.6,29.75,ESE,110,3.0,3.0,99,0.00,,,0.05,VWS V14.01,2013-10-31 00:56:00,
2013-10-30 20:01:00,46.9,46.6,29.75,ESE,109,2.0,3.0,99,0.00,,,0.05,VWS V14.01,2013-10-31 01:01:00,
2013-10-30 20:06:00,46.9,46.6,29.75,ESE,111,1.0,3.0,99,0.00,,,0.05,VWS V14.01,2013-10-31 01:06:00,
2013-10-30 20:11:00,46.9,46.6,29.75,ESE,113,1.0,3.0,99,0.00,,,0.05,VWS V14.01,2013-10-31 01:11:00,
2013-10-30 20:16:00,46.9,46.6,29.75,ESE,117,1.0,3.0,99,0.01,,,0.06,VWS V14.01,2013-10-31 01:16:00,
2013-10-30 20:21:00,46.9,46.6,29.75,SE,132,0.0,3.0,99,0.01,,,0.06,VWS V14.01,2013-10-31 01:21:00,
2013-10-30 20:26:00,47.0,46.7,29.75,SE,133,0.0,3.0,99,0.01,,,0.06,VWS V14.01,2013-10-31 01:26:00,
2013-10-30 20:31:00,47.0,46.7,29.74,SE,132,0.0,1.0,99,0.01,,,0.06,VWS V14.01,2013-10-31 01:31:00,
2013-10-30 20:36:00,47.1,46.8,29.74,SSE,150,0.0,1.0,99,0.01,,,0.06,VWS V14.01,2013-10-31 01:36:00,
2013-10-30 20:41:00,47.1,46.8,29.74,SE,140,0.0,1.0,99,0.01,,,0.06,VWS V14.01,2013-10-31 01:41:00,
2013-10-30 20:46:00,47.2,46.9,29.74,SE,142,0.0,2.0,99,0.02,,,0.07,VWS V14.01,2013-10-31 01:46:00,
2013-10-30 20:51:00,47.2,46.9,29.73,SE,125,0.0,2.0,99,0.02,,,0.07,VWS V14.01,2013-10-31 01:51:00,
2013-10-30 20:56:00,47.2,46.9,29.73,SE,133,1.0,2.0,99,0.02,,,0.07,VWS V14.01,2013-10-31 01:56:00,
2013-10-30 21:01:00,47.3,47.0,29.73,SSE,152,0.0,2.0,99,0.02,,,0.07,VWS V14.01,2013-10-31 02:01:00,
2013-10-30 21:06:00,47.3,47.0,29.73,SE,137,0.0,2.0,99,0.02,,,0.07,VWS V14.01,2013-10-31 02:06:00,
2013-10-30 21:11:00,47.3,47.0,29.73,SE,135,0.0,2.0,99,0.02,,,0.07,VWS V14.01,2013-10-31 02:11:00,
2013-10-30 21:16:00,47.4,47.1,29.72,SE,140,0.0,2.0,99,0.02,,,0.07,VWS V14.01,2013-10-31 02:16:00,
2013-10-30 21:21:00,47.4,47.1,29.72,SE,139,0.0,2.0,99,0.02,,,0.07,VWS V14.01,2013-10-31 02:21:00,
2013-10-30 21:26:00,47.4,47.1,29.71,ESE,120,0.0,2.0,99,0.02,,,0.07,VWS V14.01,2013-10-31 02:26:00,
2013-10-30 21:31:00,47.4,47.1,29.72,SSE,147,0.0,1.0,99,0.01,,,0.07,VWS V14.01,2013-10-31 02:31:00,
2013-10-30 21:36:00,47.5,47.2,29.71,SE,134,1.0,2.0,99,0.01,,-RA,0.07,VWS V14.01,2013-10-31 02:36:00,
2013-10-30 21:41:00,47.5,47.2,29.71,SE,136,1.0,2.0,99,0.01,,-RA,0.07,VWS V14.01,2013-10-31 02:41:00,
2013-10-30 21:46:00,47.5,47.2,29.71,SE,129,0.0,2.0,99,0.01,,-RA,0.07,VWS V14.01,2013-10-31 02:46:00,
2013-10-30 21:51:00,47.5,47.2,29.71,SE,134,0.0,2.0,99,0.01,,OVC002,0.07,VWS V14.01,2013-10-31 02:51:00,
2013-10-30 21:56:00,47.6,47.3,29.71,SE,139,1.0,2.0,99,0.01,,,0.07,VWS V14.01,2013-10-31 02:56:00,
2013-10-30 22:00:00,47.6,47.3,29.70,SW,225,0.0,1.0,99,0.00,,OVC002,0.07,VWS V14.01,2013-10-31 03:00:00,
2013-10-30 22:05:00,47.6,47.3,29.70,SSE,148,0.0,1.0,99,0.00,,OVC002,0.07,VWS V14.01,2013-10-31 03:05:00,
2013-10-30 22:10:00,47.7,47.4,29.70,SE,141,0.0,1.0,99,0.00,,OVC002,0.07,VWS V14.01,2013-10-31 03:10:00,
2013-10-30 22:15:00,47.7,47.4,29.70,SSE,150,2.0,2.0,99,0.00,,OVC002,0.07,VWS V14.01,2013-10-31 03:15:00,
2013-10-30 22:20:00,47.8,47.5,29.69,SE,125,0.0,2.0,99,0.00,,OVC002,0.07,VWS V14.01,2013-10-31 03:20:00,
2013-10-30 22:25:00,47.8,47.5,29.69,SE,136,0.0,2.0,99,0.00,,OVC002,0.07,VWS V14.01,2013-10-31 03:25:00,
2013-10-30 22:30:00,47.8,47.5,29.69,SE,135,0.0,1.0,99,0.00,,OVC002,0.07,VWS V14.01,2013-10-31 03:30:00,
2013-10-30 22:35:00,47.8,47.5,29.69,SE,135,0.0,1.0,99,0.00,,,0.07,VWS V14.01,2013-10-31 03:35:00,
2013-10-30 22:40:00,47.9,47.6,29.70,SW,218,0.0,1.0,99,0.00,,,0.07,VWS V14.01,2013-10-31 03:40:00,
2013-10-30 22:45:00,47.9,47.6,29.70,West,274,1.0,1.0,99,0.00,,,0.07,VWS V14.01,2013-10-31 03:45:00,
2013-10-30 22:50:00,47.9,47.6,29.69,West,274,0.0,1.0,99,0.00,,,0.07,VWS V14.01,2013-10-31 03:50:00,
2013-10-30 22:55:00,47.9,47.6,29.69,West,274,0.0,1.0,99,0.00,,,0.07,VWS V14.01,2013-10-31 03:55:00,
2013-10-30 23:00:00,47.8,47.5,29.69,West,274,0.0,0.0,99,0.01,,,0.08,VWS V14.01,2013-10-31 04:00:00,
2013-10-30 23:01:00,47.8,47.5,29.69,West,274,0.0,0.0,99,0.01,,,0.08,VWS V14.01,2013-10-31 04:01:00,
2013-10-30 23:06:00,47.8,47.5,29.68,West,274,0.0,1.0,99,0.01,,,0.08,VWS V14.01,2013-10-31 04:06:00,
2013-10-30 23:11:00,47.9,47.6,29.68,West,274,0.0,1.0,99,0.01,,,0.08,VWS V14.01,2013-10-31 04:11:00,
2013-10-30 23:16:00,47.9,47.6,29.67,West,274,0.0,1.0,99,0.01,,,0.08,VWS V14.01,2013-10-31 04:16:00,
2013-10-30 23:21:00,47.9,47.6,29.67,West,274,0.0,1.0,99,0.01,,,0.08,VWS V14.01,2013-10-31 04:21:00,
2013-10-30 23:26:00,47.8,47.5,29.67,West,274,0.0,1.0,99,0.01,,,0.08,VWS V14.01,2013-10-31 04:26:00,
2013-10-30 23:31:00,47.8,47.5,29.66,West,274,0.0,0.0,99,0.01,,-RA,0.08,VWS V14.01,2013-10-31 04:31:00,
2013-10-30 23:36:00,47.8,47.5,29.66,West,274,0.0,0.0,99,0.01,,,0.08,VWS V14.01,2013-10-31 04:36:00,
2013-10-30 23:41:00,47.8,47.5,29.66,West,274,0.0,0.0,99,0.01,,,0.08,VWS V14.01,2013-10-31 04:41:00,
2013-10-30 23:46:00,47.8,47.5,29.66,West,274,0.0,0.0,99,0.01,,,0.08,VWS V14.01,2013-10-31 04:46:00,
2013-10-30 23:51:00,47.8,47.5,29.66,West,274,0.0,0.0,99,0.01,,,0.08,VWS V14.01,2013-10-31 04:51:00,
2013-10-30 23:56:00,47.9,47.6,29.66,West,274,0.0,0.0,99,0.01,,-RA,0.08,VWS V14.01,2013-10-31 04:56:00,